Terminal Aerodrome Forecast
Issued by NWS Corpus Christi, TX

Home | Current Version | Previous Version | Text Only | Print | Product List | Glossary On
Versions: 1 2 3 4 5 6 7 8 9 10 11 12 13 14 15 16 17 18 19 20
000
FTUS44 KCRP 011700
TAFCRP
TAF
KCRP 011739Z 0118/0218 22012KT P6SM SCT025 BKN150
     FM020000 VRB05KT P6SM BKN030 OVC150
     FM020300 36018G28KT P6SM SCT035 BKN100
     FM021500 36015KT P6SM SCT050 BKN250=

USA.gov is the U.S. government's official web portal to all federal, state and local government web resources and services.